| time (UTC) | temp F | wind direction | speed MPH | gust MPH | rain 1hr in | rain 24hr in | rain mn in | humidity % | barometer mb |
| 20260905133930 | 51 | 188 | 0.0 | 0.0 | 0.00 | 0.36 | 0.01 | 96 | 1015.7 |
| 20260905133412 | 51 | 182 | 0.0 | 0.0 | 0.00 | 0.36 | 0.01 | 96 | 1015.6 |
| 20260905132423 | 52 | 144 | 0.0 | 0.0 | 0.00 | 0.36 | 0.01 | 96 | 1015.7 |
| 20260905130931 | 52 | 161 | 0.0 | 2.0 | 0.00 | 0.36 | 0.01 | 96 | 1015.6 |
| 20260905130423 | 52 | 265 | 0.0 | 1.0 | 0.00 | 0.36 | 0.01 | 96 | 1015.6 |
| 20260905124930 | 52 | 227 | 0.0 | 1.0 | 0.00 | 0.36 | 0.01 | 96 | 1015.4 |
| 20260905123929 | 52 | 246 | 0.0 | 1.0 | 0.00 | 0.36 | 0.01 | 96 | 1015.3 |
| 20260905122929 | 52 | 235 | 0.0 | 0.0 | 0.00 | 0.36 | 0.01 | 96 | 1015.3 |
| 20260905121932 | 53 | 160 | 0.0 | 0.0 | 0.00 | 0.36 | 0.01 | 96 | 1015.3 |
| 20260905120931 | 53 | 160 | 0.0 | 0.0 | 0.00 | 0.36 | 0.01 | 96 | 1015.3 |
| 20260905115929 | 53 | 160 | 0.0 | 0.0 | 0.00 | 0.36 | 0.01 | 96 | 1015.5 |
| 20260905114929 | 53 | 161 | 0.0 | 1.0 | 0.00 | 0.36 | 0.01 | 96 | 1015.4 |
| 20260905113929 | 53 | 187 | 0.0 | 0.0 | 0.00 | 0.36 | 0.01 | 96 | 1015.3 |
| 20260905112929 | 53 | 150 | 0.0 | 0.0 | 0.01 | 0.36 | 0.01 | 96 | 1015.4 |
| 20260905111933 | 53 | 147 | 0.0 | 1.0 | 0.01 | 0.36 | 0.01 | 96 | 1015.2 |
| 20260905111412 | 53 | 170 | 0.0 | 2.0 | 0.01 | 0.36 | 0.01 | 96 | 1015.2 |
| 20260905105930 | 53 | 163 | 0.0 | 1.0 | 0.01 | 0.36 | 0.01 | 96 | 1015.1 |
| 20260905105420 | 54 | 167 | 0.0 | 0.0 | 0.01 | 0.36 | 0.01 | 96 | 1015.1 |
| 20260905103928 | 54 | 167 | 0.0 | 1.0 | 0.01 | 0.36 | 0.01 | 96 | 1015.2 |
| 20260905102928 | 54 | 159 | 0.0 | 0.0 | 0.00 | 0.35 | 0.00 | 96 | 1015.2 |
| 20260905101926 | 54 | 76 | 0.0 | 0.0 | 0.00 | 0.35 | 0.00 | 96 | 1015.5 |
| 20260905100926 | 54 | 215 | 0.0 | 0.0 | 0.00 | 0.35 | 0.00 | 96 | 1015.6 |
| 20260905095930 | 54 | 215 | 0.0 | 0.0 | 0.00 | 0.36 | 0.00 | 96 | 1015.4 |
| 20260905094926 | 54 | 214 | 0.0 | 0.0 | 0.00 | 0.36 | 0.00 | 96 | 1015.3 |
| 20260905093926 | 55 | 214 | 0.0 | 0.0 | 0.00 | 0.36 | 0.00 | 96 | 1015.3 |
| 20260905092926 | 55 | 215 | 0.0 | 0.0 | 0.00 | 0.36 | 0.00 | 96 | 1015.3 |
| 20260905091927 | 55 | 214 | 0.0 | 0.0 | 0.00 | 0.36 | 0.00 | 96 | 1015.3 |
| 20260905090926 | 55 | 215 | 0.0 | 0.0 | 0.00 | 0.36 | 0.00 | 96 | 1015.3 |
| 20260905085929 | 55 | 215 | 0.0 | 0.0 | 0.00 | 0.36 | 0.00 | 96 | 1015.2 |
| 20260905084926 | 55 | 215 | 0.0 | 0.0 | 0.00 | 0.38 | 0.00 | 96 | 1015.3 |
| 20260905083928 | 55 | 215 | 0.0 | 0.0 | 0.00 | 0.38 | 0.00 | 96 | 1015.1 |
| 20260905082924 | 55 | 238 | 0.0 | 0.0 | 0.00 | 0.39 | 0.00 | 96 | 1015.0 |
| 20260905081924 | 55 | 238 | 0.0 | 0.0 | 0.00 | 0.39 | 0.00 | 96 | 1014.9 |
| 20260905080924 | 55 | 238 | 0.0 | 0.0 | 0.00 | 0.39 | 0.00 | 96 | 1014.9 |
| 20260905075924 | 55 | 137 | 0.0 | 0.0 | 0.00 | 0.39 | 0.00 | 96 | 1014.9 |
| 20260905074924 | 55 | 209 | 0.0 | 0.0 | 0.00 | 0.41 | 0.00 | 96 | 1014.9 |
| 20260905074413 | 55 | 209 | 0.0 | 0.0 | 0.00 | 0.43 | 0.00 | 96 | 1014.9 |
| 20260905072924 | 55 | 209 | 0.0 | 0.0 | 0.00 | 0.44 | 0.00 | 96 | 1014.8 |
| 20260905071927 | 55 | 209 | 0.0 | 0.0 | 0.00 | 0.44 | 0.00 | 96 | 1014.8 |
| 20260905071158 | 55 | 209 | 0.0 | 0.0 | 0.00 | 0.44 | 0.00 | 96 | 1014.7 |
| 20260905065919 | 55 | 209 | 0.0 | 0.0 | 0.00 | 0.44 | 0.44 | 96 | 1014.5 |
| 20260905064920 | 55 | 209 | 0.0 | 0.0 | 0.00 | 0.44 | 0.44 | 96 | 1014.5 |
| 20260905063921 | 55 | 176 | 0.0 | 0.0 | 0.00 | 0.44 | 0.44 | 96 | 1014.5 |
| 20260905062921 | 55 | 44 | 0.0 | 0.0 | 0.00 | 0.44 | 0.44 | 95 | 1014.4 |
| 20260905061917 | 55 | 44 | 0.0 | 0.0 | 0.00 | 0.44 | 0.44 | 95 | 1014.5 |
| 20260905060917 | 55 | 44 | 0.0 | 0.0 | 0.00 | 0.44 | 0.44 | 95 | 1014.5 |
| 20260905060357 | 55 | 44 | 0.0 | 0.0 | 0.00 | 0.44 | 0.44 | 95 | 1014.5 |
| 20260905054917 | 55 | 44 | 0.0 | 1.0 | 0.00 | 0.44 | 0.44 | 95 | 1014.4 |
| 20260905053916 | 56 | 44 | 0.0 | 1.0 | 0.00 | 0.44 | 0.44 | 95 | 1014.4 |
| 20260905052917 | 56 | 147 | 0.0 | 0.0 | 0.00 | 0.45 | 0.44 | 95 | 1014.5 |
| 20260905051916 | 56 | 153 | 0.0 | 1.0 | 0.00 | 0.45 | 0.44 | 95 | 1014.5 |
| 20260905051355 | 56 | 225 | 0.0 | 1.0 | 0.00 | 0.46 | 0.44 | 95 | 1014.4 |
| 20260905045918 | 55 | 196 | 0.0 | 1.0 | 0.00 | 0.46 | 0.44 | 95 | 1014.4 |
| 20260905044916 | 56 | 227 | 0.0 | 0.0 | 0.00 | 0.46 | 0.44 | 95 | 1014.3 |
| 20260905043915 | 56 | 227 | 0.0 | 0.0 | 0.00 | 0.46 | 0.44 | 95 | 1014.3 |
| 20260905042912 | 56 | 198 | 0.0 | 0.0 | 0.00 | 0.46 | 0.44 | 95 | 1014.3 |
| 20260905041914 | 56 | 198 | 0.0 | 0.0 | 0.01 | 0.46 | 0.44 | 95 | 1014.2 |
| 20260905040910 | 56 | 199 | 0.0 | 0.0 | 0.02 | 0.46 | 0.44 | 95 | 1014.2 |
| 20260905035912 | 56 | 243 | 0.0 | 0.0 | 0.04 | 0.46 | 0.44 | 95 | 1014.0 |
| 20260905035345 | 56 | 243 | 0.0 | 0.0 | 0.04 | 0.46 | 0.44 | 95 | 1013.9 |
| 20260905033907 | 56 | 243 | 0.0 | 0.0 | 0.04 | 0.47 | 0.44 | 94 | 1013.8 |
| 20260905032909 | 56 | 243 | 0.0 | 0.0 | 0.04 | 0.47 | 0.44 | 94 | 1013.6 |
| 20260905031908 | 57 | 243 | 0.0 | 0.0 | 0.04 | 0.46 | 0.43 | 94 | 1013.6 |
| 20260905030907 | 57 | 243 | 0.0 | 0.0 | 0.03 | 0.45 | 0.41 | 94 | 1013.6 |
| 20260905025905 | 57 | 249 | 0.0 | 0.0 | 0.01 | 0.43 | 0.40 | 94 | 1013.6 |
| 20260905024907 | 57 | 249 | 0.0 | 0.0 | 0.01 | 0.43 | 0.40 | 94 | 1013.4 |
| 20260905023909 | 57 | 120 | 0.0 | 0.0 | 0.01 | 0.43 | 0.40 | 94 | 1013.3 |
| 20260905022906 | 57 | 120 | 0.0 | 1.0 | 0.01 | 0.43 | 0.40 | 94 | 1013.3 |
| 20260905021905 | 57 | 201 | 0.0 | 0.0 | 0.00 | 0.42 | 0.39 | 94 | 1013.3 |
| 20260905020905 | 57 | 201 | 0.0 | 0.0 | 0.00 | 0.42 | 0.39 | 94 | 1013.3 |
| 20260905015906 | 57 | 201 | 0.0 | 0.0 | 0.01 | 0.42 | 0.39 | 94 | 1013.2 |
| 20260905014908 | 57 | 201 | 0.0 | 0.0 | 0.01 | 0.42 | 0.39 | 94 | 1013.1 |
| 20260905013909 | 57 | 202 | 0.0 | 0.0 | 0.02 | 0.42 | 0.39 | 94 | 1013.0 |
| 20260905012906 | 57 | 204 | 0.0 | 0.0 | 0.02 | 0.42 | 0.39 | 94 | 1012.9 |
| 20260905011903 | 57 | 210 | 0.0 | 0.0 | 0.03 | 0.42 | 0.39 | 94 | 1013.0 |
| 20260905010905 | 57 | 210 | 0.0 | 0.0 | 0.05 | 0.43 | 0.39 | 93 | 1012.8 |
| 20260905005908 | 57 | 210 | 0.0 | 0.0 | 0.07 | 0.42 | 0.38 | 93 | 1012.8 |
| 20260905004901 | 57 | 211 | 0.0 | 0.0 | 0.07 | 0.42 | 0.37 | 93 | 1012.7 |
| 20260905003901 | 57 | 182 | 0.0 | 0.0 | 0.06 | 0.41 | 0.37 | 93 | 1012.7 |
| 20260905002901 | 57 | 221 | 0.0 | 0.0 | 0.07 | 0.41 | 0.37 | 93 | 1012.4 |
| 20260905001902 | 57 | 222 | 0.0 | 0.0 | 0.06 | 0.40 | 0.36 | 93 | 1012.3 |
| 20260905000902 | 57 | 171 | 0.0 | 0.0 | 0.05 | 0.38 | 0.34 | 93 | 1012.4 |
| 20260904235901 | 58 | 171 | 0.0 | 0.0 | 0.06 | 0.35 | 0.31 | 93 | 1012.4 |
| 20260904235355 | 58 | 171 | 0.0 | 0.0 | 0.07 | 0.35 | 0.31 | 93 | 1012.3 |
| 20260904233904 | 58 | 172 | 0.0 | 0.0 | 0.08 | 0.35 | 0.31 | 92 | 1012.3 |
| 20260904232902 | 58 | 185 | 0.0 | 0.0 | 0.08 | 0.34 | 0.30 | 92 | 1012.3 |
| 20260904231901 | 58 | 213 | 0.0 | 0.0 | 0.10 | 0.34 | 0.30 | 91 | 1012.2 |
| 20260904230903 | 58 | 238 | 0.0 | 10.0 | 0.10 | 0.33 | 0.29 | 90 | 1012.2 |
| 20260904230344 | 58 | 230 | 0.0 | 0.0 | 0.07 | 0.29 | 0.25 | 91 | 1012.2 |
| 20260904224859 | 58 | 176 | 0.0 | 0.0 | 0.07 | 0.28 | 0.24 | 91 | 1012.2 |
| 20260904223857 | 59 | 211 | 0.0 | 0.0 | 0.07 | 0.27 | 0.23 | 90 | 1012.0 |
| 20260904222856 | 59 | 211 | 0.0 | 0.0 | 0.08 | 0.27 | 0.22 | 90 | 1011.9 |
| 20260904221857 | 59 | 211 | 0.0 | 1.0 | 0.07 | 0.25 | 0.20 | 89 | 1011.9 |
| 20260904220853 | 60 | 234 | 0.0 | 0.0 | 0.07 | 0.25 | 0.18 | 90 | 1011.7 |
| 20260904215856 | 60 | 234 | 0.0 | 0.0 | 0.06 | 0.32 | 0.18 | 89 | 1011.7 |
| 20260904214850 | 60 | 234 | 0.0 | 0.0 | 0.05 | 0.32 | 0.17 | 87 | 1011.7 |
| 20260904213849 | 61 | 234 | 0.0 | 0.0 | 0.04 | 0.31 | 0.15 | 87 | 1011.7 |
| 20260904212849 | 61 | 234 | 0.0 | 0.0 | 0.02 | 0.29 | 0.14 | 84 | 1011.6 |
| 20260904211852 | 62 | 234 | 0.0 | 0.0 | 0.01 | 0.28 | 0.13 | 82 | 1011.5 |
| 20260904210848 | 62 | 234 | 0.0 | 0.0 | 0.00 | 0.27 | 0.12 | 82 | 1011.3 |
| 20260904205850 | 62 | 234 | 0.0 | 0.0 | 0.00 | 0.27 | 0.12 | 81 | 1011.3 |
| 20260904204847 | 62 | 252 | 0.0 | 1.0 | 0.00 | 0.27 | 0.12 | 80 | 1011.2 |
| 20260904203845 | 62 | 144 | 0.0 | 0.0 | 0.00 | 0.27 | 0.12 | 80 | 1011.1 |
| 20260904202842 | 62 | 157 | 0.0 | 0.0 | 0.00 | 0.27 | 0.12 | 81 | 1011.1 |
| 20260904202329 | 62 | 219 | 0.0 | 1.0 | 0.00 | 0.27 | 0.12 | 80 | 1011.0 |
| 20260904200842 | 62 | 234 | 0.0 | 0.0 | 0.00 | 0.27 | 0.12 | 81 | 1011.0 |
| 20260904195844 | 61 | 151 | 0.0 | 0.0 | 0.00 | 0.27 | 0.12 | 85 | 1011.0 |
| 20260904194846 | 60 | 145 | 0.0 | 0.0 | 0.00 | 0.27 | 0.12 | 91 | 1011.1 |
| 20260904193848 | 60 | 157 | 0.0 | 0.0 | 0.00 | 0.27 | 0.12 | 94 | 1011.2 |
| 20260904192837 | 60 | 171 | 0.0 | 1.0 | 0.00 | 0.27 | 0.12 | 94 | 1011.2 |
| 20260904191828 | 60 | 135 | 0.0 | 1.0 | 0.00 | 0.27 | 0.12 | 94 | 1011.3 |
| 20260904190828 | 60 | 221 | 0.0 | 1.0 | 0.00 | 0.27 | 0.12 | 94 | 1011.3 |
| 20260904185834 | 59 | 245 | 0.0 | 2.0 | 0.01 | 0.27 | 0.12 | 94 | 1011.2 |
| 20260904184828 | 59 | 178 | 0.0 | 1.0 | 0.01 | 0.27 | 0.12 | 95 | 1011.2 |
| 20260904184737 | 58 | 170 | 0.0 | 2.0 | 0.01 | 0.27 | 0.12 | 94 | 1011.1 |
| 20260904182827 | 58 | 163 | 0.0 | 2.0 | 0.01 | 0.27 | 0.12 | 91 | 1011.2 |
| 20260904181824 | 58 | 179 | 0.0 | 0.0 | 0.01 | 0.27 | 0.12 | 90 | 1011.1 |
| 20260904180823 | 58 | 150 | 0.0 | 1.0 | 0.01 | 0.27 | 0.12 | 89 | 1011.0 |
| 20260904175821 | 58 | 134 | 0.0 | 2.0 | 0.01 | 0.26 | 0.11 | 88 | 1011.1 |
| 20260904174822 | 57 | 197 | 0.0 | 1.0 | 0.02 | 0.26 | 0.11 | 90 | 1011.0 |
| 20260904173824 | 57 | 183 | 0.0 | 0.0 | 0.02 | 0.26 | 0.11 | 91 | 1010.9 |
| 20260904173303 | 57 | 143 | 0.0 | 1.0 | 0.02 | 0.26 | 0.11 | 91 | 1010.9 |
| 20260904171821 | 57 | 227 | 0.0 | 1.0 | 0.02 | 0.26 | 0.11 | 90 | 1010.9 |
| 20260904170819 | 57 | 157 | 0.0 | 0.0 | 0.02 | 0.26 | 0.11 | 89 | 1010.7 |
| 20260904165818 | 57 | 155 | 0.0 | 1.0 | 0.01 | 0.25 | 0.10 | 88 | 1010.7 |
| 20260904165251 | 57 | 196 | 0.0 | 0.0 | 0.00 | 0.24 | 0.09 | 87 | 1010.7 |
| 20260904164258 | 57 | 144 | 0.0 | 2.0 | 0.00 | 0.24 | 0.09 | 87 | 1010.5 |
| 20260904162818 | 57 | 9 | 0.0 | 1.0 | 0.00 | 0.24 | 0.09 | 89 | 1010.4 |
| 20260904161818 | 56 | 200 | 0.0 | 0.0 | 0.00 | 0.24 | 0.09 | 90 | 1010.3 |
| 20260904160817 | 56 | 350 | 0.0 | 1.0 | 0.00 | 0.24 | 0.09 | 92 | 1010.2 |
| 20260904160311 | 56 | 234 | 0.0 | 0.0 | 0.00 | 0.24 | 0.09 | 93 | 1010.3 |
| 20260904155306 | 55 | 51 | 0.0 | 1.0 | 0.00 | 0.24 | 0.09 | 94 | 1010.3 |
| 20260904153814 | 55 | 186 | 0.0 | 1.0 | 0.00 | 0.24 | 0.09 | 94 | 1010.2 |
| 20260904152816 | 54 | 221 | 0.0 | 1.0 | 0.00 | 0.24 | 0.09 | 94 | 1010.2 |
| 20260904151814 | 54 | 159 | 0.0 | 1.0 | 0.00 | 0.24 | 0.09 | 94 | 1010.1 |
| 20260904150814 | 54 | 198 | 0.0 | 0.0 | 0.00 | 0.24 | 0.09 | 95 | 1010.0 |
| 20260904145812 | 53 | 233 | 0.0 | 0.0 | 0.00 | 0.24 | 0.09 | 95 | 1009.8 |
| 20260904144812 | 53 | 233 | 0.0 | 0.0 | 0.00 | 0.24 | 0.09 | 95 | 1009.7 |
| 20260904143812 | 53 | 234 | 0.0 | 0.0 | 0.00 | 0.24 | 0.09 | 95 | 1009.7 |
| 20260904142812 | 53 | 236 | 0.0 | 0.0 | 0.00 | 0.24 | 0.09 | 95 | 1009.6 |
| 20260904141813 | 53 | 230 | 0.0 | 0.0 | 0.00 | 0.24 | 0.09 | 95 | 1009.5 |
| 20260904141252 | 53 | 230 | 0.0 | 0.0 | 0.00 | 0.24 | 0.09 | 95 | 1009.5 |
| 20260904135813 | 53 | 230 | 0.0 | 0.0 | 0.00 | 0.24 | 0.09 | 95 | 1009.2 |
| 20260904134812 | 53 | 229 | 0.0 | 0.0 | 0.00 | 0.24 | 0.09 | 95 | 1009.2 |